Estación de San Julian
Ultimos registro cada 15 minutos 51
| N° | Estación | Fecha / Hora | Temperatura | Humedad | Lluvia | Velocidad | Dirección | Radiación | Presion |
| 51 | San Julian | 05-05-2026 12:30 | 16 | 82,4 | 0 | 0 | 223 | 621,9 | 984,9 |
| 50 | San Julian | 05-05-2026 12:15 | 14,2 | 94,6 | 0 | 0 | 204 | 533,1 | 985,1 |
| 49 | San Julian | 05-05-2026 12:00 | 12,9 | 98,3 | 0 | 0 | 213 | 248,1 | 985,2 |
| 48 | San Julian | 05-05-2026 11:45 | 12,4 | 99,3 | 0 | 0 | 218 | 219,4 | 985,4 |
| 47 | San Julian | 05-05-2026 11:30 | 11,8 | 99,3 | 0 | 0 | 222 | 186,9 | 985,4 |
| 46 | San Julian | 05-05-2026 11:15 | 11,6 | 99,7 | 0 | 0 | 234 | 166,9 | 985,4 |
| 45 | San Julian | 05-05-2026 11:00 | 11,2 | 99,8 | 0 | 0 | 223 | 138,1 | 985,7 |
| 44 | San Julian | 05-05-2026 10:45 | 11,1 | 99,8 | 0 | 0 | 230 | 136,9 | 985,9 |
| 43 | San Julian | 05-05-2026 10:30 | 10,9 | 99,8 | 0 | 0 | 230 | 124,4 | 986 |
| 42 | San Julian | 05-05-2026 10:15 | 10,8 | 99,8 | 0 | 0 | 229 | 111,9 | 985,8 |
| 41 | San Julian | 05-05-2026 10:00 | 10,8 | 99,8 | 0 | 0 | 225 | 89,4 | 985,9 |
| 40 | San Julian | 05-05-2026 09:45 | 10,7 | 99,8 | 0 | 0 | 222 | 94,4 | 985,7 |
| 39 | San Julian | 05-05-2026 09:30 | 10,7 | 99,9 | 0 | 0 | 230 | 89,4 | 985,8 |
| 38 | San Julian | 05-05-2026 09:15 | 10,3 | 99,6 | 0 | 0 | 222 | 79,4 | 985,6 |
| 37 | San Julian | 05-05-2026 09:00 | 10,2 | 99,7 | 0 | 0 | 244 | 73,1 | 985,5 |
| 36 | San Julian | 05-05-2026 08:45 | 9,8 | 99,8 | 0 | 0 | 250 | 74,4 | 985,4 |
| 35 | San Julian | 05-05-2026 08:30 | 9,5 | 99,4 | 0 | 0 | 251 | 59,4 | 985,5 |
| 34 | San Julian | 05-05-2026 08:15 | 9,2 | 99,7 | 0 | 0 | 267 | 41,9 | 985,2 |
| 33 | San Julian | 05-05-2026 08:00 | 9 | 99,5 | 0 | 0 | 278 | 20,6 | 985 |
| 32 | San Julian | 05-05-2026 07:45 | 8,7 | 99,4 | 0 | 0 | 278 | 5,6 | 984,8 |
| 31 | San Julian | 05-05-2026 07:30 | 8,3 | 99,3 | 0 | 0 | 278 | 1,9 | 984,8 |
| 30 | San Julian | 05-05-2026 07:15 | 8,1 | 99,1 | 0 | 0 | 278 | 0,6 | 984,3 |
| 29 | San Julian | 05-05-2026 07:00 | 8,2 | 98,8 | 0 | 0 | 275 | 0,6 | 984 |
| 28 | San Julian | 05-05-2026 06:45 | 8,3 | 98,7 | 0 | 0 | 257 | 0,6 | 983,9 |
| 27 | San Julian | 05-05-2026 06:30 | 8,8 | 98,5 | 0 | 0 | 234 | 0,6 | 983,8 |
| 26 | San Julian | 05-05-2026 06:15 | 8,7 | 98,2 | 0 | 0 | 234 | 0,6 | 983,7 |
| 25 | San Julian | 05-05-2026 06:00 | 8,8 | 98,1 | 0 | 0 | 233 | 0,6 | 983,6 |
| 24 | San Julian | 05-05-2026 05:45 | 8,2 | 98 | 0 | 0 | 222 | 0,6 | 983,7 |
| 23 | San Julian | 05-05-2026 05:30 | 7,7 | 97,4 | 0 | 0 | 220 | 0,6 | 983,3 |
| 22 | San Julian | 05-05-2026 05:15 | 8 | 97,1 | 0 | 0 | 233 | 0,6 | 982,7 |
| 21 | San Julian | 05-05-2026 05:00 | 8,9 | 96,8 | 0 | 0 | 248 | 0,6 | 982,9 |
| 20 | San Julian | 05-05-2026 04:45 | 9 | 96,6 | 0 | 0 | 248 | 0,6 | 982,9 |
| 19 | San Julian | 05-05-2026 04:30 | 8,2 | 95,3 | 0 | 0 | 241 | 0,6 | 982,9 |
| 18 | San Julian | 05-05-2026 04:15 | 8,6 | 94,5 | 0 | 0 | 239 | 0,6 | 982,7 |
| 17 | San Julian | 05-05-2026 04:00 | 8,3 | 94,2 | 0 | 0 | 239 | 0,6 | 982,7 |
| 16 | San Julian | 05-05-2026 03:45 | 9,1 | 93,6 | 0 | 0 | 239 | 0,6 | 982,4 |
| 15 | San Julian | 05-05-2026 03:30 | 9,2 | 93,8 | 0 | 0 | 239 | 0,6 | 982,6 |
| 14 | San Julian | 05-05-2026 03:15 | 9,9 | 93,3 | 0 | 0 | 239 | 0,6 | 982,8 |
| 13 | San Julian | 05-05-2026 03:00 | 10,5 | 93,3 | 0 | 0 | 244 | 0,6 | 983,2 |
| 12 | San Julian | 05-05-2026 02:45 | 10,1 | 92,5 | 0 | 0 | 244 | 0,6 | 983,1 |
| 11 | San Julian | 05-05-2026 02:30 | 10,2 | 91,3 | 0 | 0 | 244 | 0,6 | 983,1 |
| 10 | San Julian | 05-05-2026 02:15 | 10,4 | 90,7 | 0 | 0 | 244 | 0,6 | 983,3 |
| 9 | San Julian | 05-05-2026 02:00 | 10 | 90 | 0 | 0 | 244 | 0,6 | 983,5 |
| 8 | San Julian | 05-05-2026 01:45 | 9,4 | 90,1 | 0 | 0 | 244 | 0,6 | 983,7 |
| 7 | San Julian | 05-05-2026 01:30 | 8,9 | 88,3 | 0 | 0 | 244 | 0,6 | 983,5 |
| 6 | San Julian | 05-05-2026 01:15 | 9,5 | 88,1 | 0 | 0 | 244 | 0,6 | 983,7 |
| 5 | San Julian | 05-05-2026 01:00 | 9,9 | 87,2 | 0 | 0 | 244 | 0,6 | 983,5 |
| 4 | San Julian | 05-05-2026 00:45 | 10,6 | 86 | 0 | 0 | 244 | 0,6 | 983,7 |
| 3 | San Julian | 05-05-2026 00:30 | 10,9 | 85,6 | 0 | 0 | 244 | 0,6 | 983,9 |
| 2 | San Julian | 05-05-2026 00:15 | 11 | 85,6 | 0 | 0 | 244 | 0,6 | 983,8 |
| 1 | San Julian | 05-05-2026 00:00 | 11,5 | 85,4 | 0 | 0 | 244 | 0,6 | 983,9 |